When you browse on this site, cookies collect data to enhance your experience and personalize the content and advertising you see.
Visit our Privacy Policy to learn more. By continuing to use the site, you agree to this use of cookies and data.
  • In Portugal
  • List of Countries
  • For 7 days
  • Water Temperature
  • Weather Map
  • Weather Widgets
  • user-avatar
    Login

    Hourly Weather Verhniy Katruh

    Today, 23 September, Monday

    Time Temperature Precipitation Wind Pressure Humidity
    00:00 -1°C° 0 mm 2 mps 586 mmHg 59%
    01:00 +1°C° 0 mm 2 mps 586 mmHg 59%
    02:00 +1°C° 0 mm 2 mps 586 mmHg 60%
    03:00 +1°C° 0 mm 2 mps 586 mmHg 59%
    04:00 +1°C° 0 mm 2 mps 586 mmHg 58%
    05:00 +1°C° 0 mm 2 mps 586 mmHg 57%
    06:00 +3°C° 0 mm 1 mps 586 mmHg 56%
    07:00 +4°C° 0 mm 2 mps 587 mmHg 56%
    08:00 +6°C° 0 mm 2 mps 588 mmHg 55%
    09:00 +8°C° 0 mm 2 mps 589 mmHg 53%
    10:00 +9°C° 0 mm 2 mps 589 mmHg 52%
    11:00 +10°C° 0 mm 2 mps 589 mmHg 50%
    12:00 +11°C° 0 mm 3 mps 590 mmHg 49%
    13:00 +11°C° 0 mm 3 mps 589 mmHg 49%
    14:00 +12°C° 0 mm 2 mps 589 mmHg 49%
    15:00 +10°C° 0 mm 2 mps 589 mmHg 49%
    16:00 +8°C° 0 mm 2 mps 587 mmHg 58%
    17:00 +6°C° 0 mm 2 mps 586 mmHg 67%
    18:00 +4°C° 0 mm 1 mps 585 mmHg 76%
    19:00 +4°C° 0 mm 1 mps 585 mmHg 71%
    20:00 +4°C° 0 mm 1 mps 586 mmHg 67%
    21:00 +4°C° 0 mm 1 mps 586 mmHg 63%
    22:00 +4°C° 0 mm 1 mps 586 mmHg 61%
    23:00 +3°C° 0 mm 1 mps 585 mmHg 60%

    Tomorrow, 24 September, Tuesday

    Time Temperature Precipitation Wind Pressure Humidity
    00:00 +3°C° 0 mm 1 mps 585 mmHg 58%
    01:00 +2°C° 0 mm 2 mps 585 mmHg 59%
    02:00 +2°C° 0 mm 2 mps 585 mmHg 59%
    03:00 +3°C° 0 mm 2 mps 585 mmHg 60%
    04:00 +3°C° 0 mm 2 mps 585 mmHg 61%
    05:00 +3°C° 0 mm 2 mps 585 mmHg 62%
    06:00 +4°C° 0 mm 1 mps 586 mmHg 63%
    07:00 +5°C° 0 mm 2 mps 587 mmHg 59%
    08:00 +7°C° 0 mm 2 mps 588 mmHg 55%
    09:00 +10°C° 0 mm 2 mps 589 mmHg 51%
    10:00 +12°C° 0 mm 2 mps 589 mmHg 49%
    11:00 +11°C° 0 mm 3 mps 590 mmHg 48%
    12:00 +12°C° 0 mm 3 mps 590 mmHg 46%
    13:00 +12°C° 0 mm 3 mps 589 mmHg 48%
    14:00 +12°C° 0 mm 3 mps 589 mmHg 49%
    15:00 +12°C° 0 mm 3 mps 589 mmHg 51%
    16:00 +9°C° 0 mm 2 mps 588 mmHg 61%
    17:00 +7°C° 0 mm 2 mps 586 mmHg 71%
    18:00 +6°C° 0 mm 1 mps 585 mmHg 81%
    19:00 +6°C° 0 mm 1 mps 585 mmHg 77%
    20:00 +5°C° 0 mm 1 mps 585 mmHg 72%
    21:00 +4°C° 0 mm 2 mps 585 mmHg 67%
    22:00 +4°C° 0 mm 2 mps 585 mmHg 68%
    23:00 +4°C° 0 mm 2 mps 585 mmHg 69%

    Day after tomorrow, 25 September, Wednesday

    Time Temperature Precipitation Wind Pressure Humidity
    00:00 +4°C° 0 mm 2 mps 585 mmHg 70%
    01:00 +4°C° 0 mm 2 mps 584 mmHg 69%
    02:00 +4°C° 0 mm 2 mps 584 mmHg 69%
    03:00 +4°C° 0 mm 2 mps 584 mmHg 69%
    04:00 +4°C° 0 mm 2 mps 584 mmHg 67%
    05:00 +4°C° 0 mm 2 mps 584 mmHg 66%
    06:00 +5°C° 0 mm 2 mps 584 mmHg 64%
    07:00 +7°C° 0 mm 2 mps 586 mmHg 58%
    08:00 +9°C° 0 mm 2 mps 587 mmHg 52%
    09:00 +13°C° 0 mm 2 mps 589 mmHg 46%
    10:00 +13°C° 0 mm 3 mps 589 mmHg 46%
    11:00 +14°C° 0 mm 3 mps 589 mmHg 46%
    12:00 +14°C° 0 mm 3 mps 589 mmHg 45%
    13:00 +14°C° 0 mm 3 mps 589 mmHg 47%
    14:00 +14°C° 0 mm 3 mps 589 mmHg 48%
    15:00 +14°C° 0 mm 3 mps 589 mmHg 49%
    16:00 +12°C° 0 mm 3 mps 588 mmHg 57%
    17:00 +10°C° 0 mm 2 mps 587 mmHg 64%
    18:00 +8°C° 0 mm 2 mps 586 mmHg 71%
    19:00 +7°C° 0 mm 2 mps 586 mmHg 70%
    20:00 +7°C° 0 mm 2 mps 586 mmHg 68%
    21:00 +6°C° 0 mm 2 mps 586 mmHg 66%
    22:00 +6°C° 0 mm 2 mps 586 mmHg 66%
    23:00 +6°C° 0 mm 2 mps 586 mmHg 66%

    26 September, Thursday

    Time Temperature Precipitation Wind Pressure Humidity
    00:00 +6°C° 0 mm 2 mps 586 mmHg 66%
    01:00 +6°C° 0 mm 2 mps 586 mmHg 66%
    02:00 +6°C° 0 mm 2 mps 586 mmHg 66%
    03:00 +6°C° 0 mm 2 mps 586 mmHg 66%
    04:00 +6°C° 0 mm 2 mps 586 mmHg 67%
    05:00 +6°C° 0 mm 2 mps 586 mmHg 67%
    06:00 +6°C° 0 mm 2 mps 586 mmHg 68%
    07:00 +8°C° 0 mm 2 mps 587 mmHg 63%
    08:00 +10°C° 0 mm 2 mps 588 mmHg 58%
    09:00 +13°C° 0 mm 3 mps 589 mmHg 54%
    10:00 +14°C° 0 mm 4 mps 590 mmHg 51%
    11:00 +14°C° 0 mm 4 mps 590 mmHg 48%
    12:00 +15°C° 0 mm 5 mps 590 mmHg 45%
    13:00 +15°C° 0 mm 4 mps 590 mmHg 46%
    14:00 +15°C° 0 mm 4 mps 589 mmHg 46%
    15:00 +14°C° 0 mm 3 mps 589 mmHg 46%
    16:00 +13°C° 0 mm 3 mps 588 mmHg 55%
    17:00 +12°C° 0 mm 2 mps 587 mmHg 63%
    18:00 +10°C° 0 mm 1 mps 586 mmHg 71%
    19:00 +9°C° 0 mm 1 mps 586 mmHg 73%
    20:00 +8°C° 0 mm 2 mps 586 mmHg 75%
    21:00 +7°C° 0 mm 2 mps 586 mmHg 76%
    22:00 +7°C° 0 mm 2 mps 586 mmHg 79%
    23:00 +7°C° 0 mm 2 mps 586 mmHg 82%

    27 September, Friday

    Time Temperature Precipitation Wind Pressure Humidity
    00:00 +7°C° 0 mm 2 mps 586 mmHg 84%
    01:00 +7°C° 0 mm 2 mps 586 mmHg 84%
    02:00 +6°C° 0 mm 2 mps 586 mmHg 84%
    03:00 +6°C° 0 mm 2 mps 585 mmHg 84%
    04:00 +6°C° 0 mm 2 mps 585 mmHg 84%
    05:00 +6°C° 0 mm 2 mps 586 mmHg 83%
    06:00 +6°C° 0 mm 2 mps 586 mmHg 83%
    07:00 +9°C° 0 mm 2 mps 587 mmHg 77%
    08:00 +12°C° 0 mm 2 mps 588 mmHg 70%
    09:00 +14°C° 0 mm 2 mps 589 mmHg 64%
    10:00 +14°C° 0 mm 3 mps 589 mmHg 61%
    11:00 +16°C° 0 mm 3 mps 589 mmHg 57%
    12:00 +16°C° 0 mm 3 mps 590 mmHg 54%
    13:00 +16°C° 0 mm 3 mps 589 mmHg 54%
    14:00 +16°C° 0 mm 3 mps 589 mmHg 53%
    15:00 +16°C° 0 mm 3 mps 589 mmHg 53%
    16:00 +14°C° 0 mm 2 mps 588 mmHg 60%
    17:00 +12°C° 0 mm 2 mps 587 mmHg 68%
    18:00 +11°C° 0 mm 1 mps 586 mmHg 75%
    19:00 +10°C° 0 mm 1 mps 586 mmHg 75%
    20:00 +10°C° 0 mm 1 mps 586 mmHg 75%
    21:00 +10°C° 0 mm 1 mps 586 mmHg 75%
    22:00 +10°C° 0 mm 1 mps 586 mmHg 77%
    23:00 +10°C° 0 mm 1 mps 586 mmHg 79%

    28 September, Saturday

    Time Temperature Precipitation Wind Pressure Humidity
    00:00 +10°C° 0 mm 1 mps 586 mmHg 82%
    01:00 +10°C° 0 mm 1 mps 586 mmHg 84%
    02:00 +9°C° 0 mm 1 mps 585 mmHg 86%
    03:00 +7°C° 0 mm 2 mps 585 mmHg 88%
    04:00 +7°C° 0 mm 2 mps 584 mmHg 88%
    05:00 +7°C° 0 mm 2 mps 584 mmHg 87%
    06:00 +7°C° 0 mm 2 mps 584 mmHg 87%
    07:00 +9°C° 0 mm 2 mps 585 mmHg 78%
    08:00 +11°C° 0 mm 3 mps 586 mmHg 70%
    09:00 +13°C° 0 mm 3 mps 587 mmHg 62%
    10:00 +12°C° 0.6 mm 3 mps 586 mmHg 69%
    11:00 +11°C° 0.6 mm 3 mps 586 mmHg 77%
    12:00 +10°C° 0.6 mm 3 mps 586 mmHg 85%
    13:00 +10°C° 1.2 mm 3 mps 586 mmHg 83%
    14:00 +10°C° 1.2 mm 3 mps 586 mmHg 82%
    15:00 +9°C° 1.2 mm 3 mps 585 mmHg 80%
    16:00 +8°C° 0.1 mm 2 mps 585 mmHg 83%
    17:00 +7°C° 0.1 mm 2 mps 585 mmHg 86%
    18:00 +7°C° 0.1 mm 1 mps 585 mmHg 89%
    19:00 +6°C° 0 mm 1 mps 585 mmHg 89%
    20:00 +6°C° 0 mm 1 mps 586 mmHg 90%
    21:00 +5°C° 0 mm 2 mps 586 mmHg 90%
    22:00 +5°C° 0 mm 1 mps 586 mmHg 89%
    23:00 +5°C° 0 mm 1 mps 586 mmHg 88%
    Show more